Torna al catalogo

STARLINK-5338

AttivoComunicazioniVLEO
NORAD 55286·PAYLOAD·🇺🇸 United States

Lanciato Jan 19, 2023 da Vandenberg Space Force Base

Loading…

Prossimi Passaggi (prossime 24 ore)

TLE

AggiornatoSource: CelesTrak SupGP

Epoca: Sep 14, 2026, 21:32 UTC

1 55286C 23010T   26257.89770833  .00064552  00000+0  54079-2 0  2574
2 55286  69.9994 267.4551 0004008 265.7158 294.4261 14.98308858    13

Traccia STARLINK-5338 in tempo reale con AllMySat

Download on the App Store